period_start,C,m1,H,J0,J1,J2,J3,J4,J5,JA,JB,JC,JD,JJ,JK,JN,#
2016-07-23 00:02:23,0.00,0.57,0.00,26.50,30.27,32.90,14.22,47.78,1011.25,2026.11,3194.85,2918.99,3307.98,599.99,585.96,45.67,0000 0000 0000 0000 000000
2016-07-23 00:07:25,0.02,0.57,0.00,26.52,30.28,32.92,14.30,47.82,1011.25,2026.02,3194.04,2918.66,3307.35,599.93,585.86,45.72,0000 0000 0000 0000 000000
2016-07-23 00:12:26,0.05,0.57,0.00,26.53,30.30,32.96,14.26,47.91,1011.25,2026.05,3193.22,2917.94,3306.53,599.89,585.81,45.77,0000 0000 0000 0000 000000
2016-07-23 00:17:27,0.02,0.57,0.00,26.52,30.30,32.93,14.24,47.83,1011.25,2026.04,3192.88,2917.19,3306.01,599.95,585.90,45.82,0000 0000 0000 0000 000000
2016-07-23 00:22:29,0.01,0.57,0.00,26.54,30.30,32.96,14.36,48.02,1011.24,2026.01,3192.13,2917.00,3305.91,600.83,586.66,45.87,0000 0000 0000 0000 000000
2016-07-23 00:27:30,0.01,0.57,0.00,26.54,30.31,32.95,14.23,47.79,1011.24,2026.01,3191.99,2916.97,3305.24,600.08,585.96,45.92,0000 0000 0000 0000 000000
2016-07-23 00:32:31,0.05,0.58,0.00,26.56,30.32,32.96,14.20,47.80,1011.23,2026.01,3191.31,2916.31,3304.67,599.95,585.73,45.97,0000 0000 0000 0000 000000
2016-07-23 00:37:32,0.01,0.58,0.00,26.57,30.32,32.98,14.20,47.94,1011.23,2026.00,3190.73,2915.96,3304.03,600.23,586.06,46.02,0000 0000 0000 0000 000000
2016-07-23 00:42:34,0.02,0.58,0.00,26.59,30.34,32.99,14.25,47.80,1011.16,2026.00,3190.10,2915.64,3304.00,599.79,585.61,46.07,0000 0000 0000 0000 000000
2016-07-23 00:47:35,0.02,0.58,0.00,26.61,30.35,33.01,14.28,47.83,1011.09,2026.00,3189.99,2915.07,3303.87,600.14,585.82,46.12,0000 0000 0000 0000 000000
2016-07-23 00:52:36,0.02,0.58,0.00,26.61,30.36,33.00,14.21,47.67,1011.07,2026.00,3189.61,2915.00,3303.17,600.04,585.61,46.17,0000 0000 0000 0000 000000
2016-07-23 00:57:37,0.01,0.58,0.00,26.60,30.37,33.00,14.23,47.92,1011.04,2026.00,3189.03,2914.94,3303.00,600.22,585.83,46.22,0000 0000 0000 0000 000000
2016-07-23 01:02:39,0.02,0.58,0.00,26.62,30.37,32.99,14.23,47.77,1010.96,2026.00,3188.96,2914.44,3302.93,600.26,585.83,46.28,0000 0000 0000 0000 000000
2016-07-23 01:07:40,0.03,0.58,0.00,26.63,30.40,32.98,14.21,47.68,1011.00,2026.00,3188.42,2914.04,3302.38,600.01,585.61,46.33,0000 0000 0000 0000 000000
2016-07-23 01:12:41,0.00,0.59,0.00,26.65,30.40,33.01,14.17,47.68,1010.92,2026.00,3188.00,2913.99,3302.00,599.79,585.30,46.38,0000 0000 0000 0000 000000
2016-07-23 01:17:43,0.03,0.59,0.00,26.66,30.42,33.04,14.22,48.02,1010.90,2025.99,3187.32,2913.62,3301.78,599.72,585.27,46.43,0000 0000 0000 0000 000000
2016-07-23 01:22:44,0.02,0.59,0.00,26.65,30.42,33.06,14.27,47.73,1010.86,2025.98,3186.99,2913.06,3301.08,600.73,586.22,46.48,0000 0000 0000 0000 000000
2016-07-23 01:27:45,0.00,0.59,0.00,26.66,30.45,33.08,14.21,47.82,1010.82,2025.99,3186.86,2913.00,3301.00,599.90,585.30,46.53,0000 0000 0000 0000 000000
2016-07-23 01:32:47,0.01,0.59,0.00,26.68,30.45,33.11,14.21,47.74,1010.79,2025.98,3186.07,2912.96,3300.94,600.12,585.46,46.58,0000 0000 0000 0000 000000
2016-07-23 01:37:48,0.03,0.59,0.00,26.68,30.47,33.10,14.23,47.77,1010.77,2025.96,3185.88,2912.34,3300.18,600.11,585.47,46.63,0000 0000 0000 0000 000000
2016-07-23 01:42:49,0.01,0.59,0.00,26.70,30.47,33.10,14.25,47.77,1010.78,2025.92,3185.14,2912.02,3300.00,600.20,585.59,46.68,0000 0000 0000 0000 000000
2016-07-23 01:47:51,0.03,0.59,0.00,26.72,30.50,33.12,14.22,47.82,1010.77,2025.81,3184.52,2911.75,3299.41,600.14,585.40,46.73,0000 0000 0000 0000 000000
2016-07-23 01:52:52,0.03,0.59,0.00,26.73,30.50,33.14,14.36,47.84,1010.77,2025.65,3183.40,2911.00,3298.73,600.20,585.48,46.78,0000 0000 0000 0000 000000
2016-07-23 01:57:54,0.04,0.60,0.00,26.74,30.52,33.14,14.23,47.82,1010.77,2025.35,3181.84,2910.14,3297.78,599.73,585.07,46.83,0000 0000 0000 0000 000000
2016-07-23 02:02:55,0.27,0.60,0.00,26.76,30.52,33.18,14.27,47.88,1010.77,2025.08,3177.42,2907.43,3294.70,600.27,585.44,46.88,0000 0000 0000 0000 000000
2016-07-23 02:07:56,0.07,0.61,0.00,26.77,30.53,33.16,14.17,47.86,1010.78,2025.03,3173.15,2904.97,3291.97,599.93,585.09,46.93,0000 0000 0000 0000 000000
2016-07-23 02:12:58,0.04,0.62,0.00,26.76,30.55,33.18,14.25,47.84,1010.77,2025.01,3172.80,2904.32,3291.24,600.32,585.59,46.98,0000 0000 0000 0000 000000
2016-07-23 02:17:59,0.01,0.62,0.00,26.78,30.55,33.18,14.22,47.95,1010.77,2025.00,3172.07,2904.01,3291.00,599.84,584.98,47.03,0000 0000 0000 0000 000000
2016-07-23 02:23:00,0.01,0.62,0.00,26.78,30.57,33.19,14.15,47.81,1010.77,2025.00,3171.93,2903.99,3290.84,600.08,585.24,47.08,0000 0000 0000 0000 000000
2016-07-23 02:28:01,0.03,0.62,0.00,26.80,30.57,33.22,14.26,47.81,1010.77,2025.00,3171.19,2903.67,3290.14,600.01,585.05,47.13,0000 0000 0000 0000 000000
2016-07-23 02:33:02,0.01,0.62,0.00,26.82,30.59,33.21,14.20,47.74,1010.77,2025.00,3171.00,2903.12,3290.00,599.99,585.02,47.19,0000 0000 0000 0000 000000
2016-07-23 02:38:04,0.01,0.62,0.00,26.82,30.60,33.21,14.23,47.69,1010.76,2024.99,3170.72,2903.00,3289.84,600.25,585.29,47.24,0000 0000 0000 0000 000000
2016-07-23 02:43:05,0.02,0.62,0.00,26.83,30.61,33.24,14.26,47.64,1010.76,2024.99,3170.04,2902.95,3289.09,600.28,585.25,47.29,0000 0000 0000 0000 000000
2016-07-23 02:48:06,0.02,0.62,0.00,26.85,30.62,33.22,14.16,47.64,1010.76,2024.99,3169.96,2902.45,3289.00,599.43,584.48,47.34,0000 0000 0000 0000 000000
2016-07-23 02:53:07,0.01,0.62,0.00,26.86,30.63,33.26,14.29,47.85,1010.76,2024.98,3169.48,2902.06,3288.96,600.36,585.30,47.39,0000 0000 0000 0000 000000
2016-07-23 02:58:09,0.01,0.62,0.00,26.86,30.65,33.28,14.22,47.87,1010.76,2024.97,3169.04,2902.00,3288.34,599.80,584.74,47.44,0000 0000 0000 0000 000000
2016-07-23 03:03:10,0.01,0.62,0.00,26.88,30.65,33.24,14.19,47.79,1010.76,2024.95,3168.74,2901.91,3288.01,599.84,584.77,47.49,0000 0000 0000 0000 000000
2016-07-23 03:08:12,0.03,0.63,0.00,26.90,30.67,33.26,14.24,47.95,1010.76,2024.86,3168.03,2901.21,3287.75,599.80,584.69,47.54,0000 0000 0000 0000 000000
2016-07-23 03:13:13,-0.02,0.63,0.00,26.89,30.67,33.29,14.16,47.78,1010.76,2024.52,3167.76,2901.00,3287.05,599.60,584.66,47.59,0000 0000 0000 0000 000000
2016-07-23 03:18:14,-0.00,0.63,0.00,26.90,30.69,33.29,14.23,47.84,1010.76,2024.39,3167.05,2900.95,3287.00,600.03,584.95,47.64,0000 0000 0000 0000 000000
2016-07-23 03:23:15,0.03,0.63,0.00,26.92,30.70,33.31,14.23,47.94,1010.76,2024.28,3166.78,2900.34,3286.48,600.12,584.98,47.69,0000 0000 0000 0000 000000
2016-07-23 03:28:17,0.00,0.63,0.00,26.91,30.70,33.33,14.31,47.80,1010.78,2024.07,3166.07,2900.01,3286.02,600.18,585.00,47.74,0000 0000 0000 0000 000000
2016-07-23 03:33:18,0.00,0.63,0.00,26.93,30.72,33.33,14.21,47.79,1010.78,2024.05,3165.97,2900.00,3285.96,599.88,584.77,47.79,0000 0000 0000 0000 000000
2016-07-23 03:38:19,0.03,0.63,0.00,26.95,30.72,33.39,14.19,47.77,1010.77,2024.02,3165.45,2899.72,3285.47,600.07,584.84,47.84,0000 0000 0000 0000 000000
2016-07-23 03:43:21,0.01,0.63,0.00,26.96,30.73,33.36,14.22,47.88,1010.78,2024.00,3165.00,2899.07,3285.01,600.04,584.84,47.89,0000 0000 0000 0000 000000
2016-07-23 03:48:22,0.00,0.63,0.00,26.97,30.75,33.38,14.17,47.86,1010.79,2024.00,3164.97,2899.00,3285.00,599.68,584.45,47.94,0000 0000 0000 0000 000000
2016-07-23 03:53:23,0.01,0.63,0.00,26.98,30.75,33.39,14.23,47.92,1010.77,2024.00,3164.45,2899.00,3284.84,600.43,585.17,47.99,0000 0000 0000 0000 000000
2016-07-23 03:58:25,0.01,0.63,0.00,26.98,30.76,33.40,14.16,47.62,1010.77,2024.00,3164.02,2898.89,3284.19,599.80,584.54,48.04,0000 0000 0000 0000 000000
2016-07-23 04:03:26,0.02,0.63,0.00,27.00,30.77,33.43,14.26,48.11,1010.76,2024.00,3163.85,2898.38,3284.00,600.21,584.90,48.09,0000 0000 0000 0000 000000
2016-07-23 04:08:28,0.02,0.63,0.00,27.01,30.77,33.45,14.19,47.78,1010.76,2024.00,3163.11,2898.04,3283.95,599.88,584.47,48.14,0000 0000 0000 0000 000000
2016-07-23 04:13:29,0.01,0.63,0.00,27.01,30.78,33.40,14.21,47.71,1010.76,2023.99,3162.98,2897.99,3283.35,600.30,584.98,48.20,0000 0000 0000 0000 000000
2016-07-23 04:18:30,0.01,0.64,0.00,27.03,30.80,33.44,14.17,47.63,1010.76,2023.99,3162.43,2897.94,3283.00,599.93,584.53,48.25,0000 0000 0000 0000 000000
2016-07-23 04:23:32,0.01,0.64,0.00,27.04,30.80,33.46,14.15,47.79,1010.76,2023.99,3162.01,2897.58,3282.99,599.67,584.31,48.30,0000 0000 0000 0000 000000
2016-07-23 04:28:33,0.02,0.64,0.00,27.03,30.80,33.45,14.15,47.79,1010.76,2023.98,3161.83,2897.07,3282.58,599.62,584.26,48.35,0000 0000 0000 0000 000000
2016-07-23 04:33:34,0.01,0.64,0.00,27.04,30.81,33.45,14.24,47.68,1010.76,2023.99,3161.41,2897.00,3282.10,600.19,584.80,48.40,0000 0000 0000 0000 000000
2016-07-23 04:38:36,0.00,0.64,0.00,27.06,30.82,33.45,14.14,47.72,1010.75,2023.99,3161.02,2897.00,3282.00,599.64,584.30,48.45,0000 0000 0000 0000 000000
2016-07-23 04:43:37,-0.00,0.64,0.00,27.07,30.82,33.45,14.23,48.08,1010.75,2023.96,3160.97,2896.96,3281.97,600.35,584.90,48.50,0000 0000 0000 0000 000000
2016-07-23 04:48:38,0.04,0.64,0.00,27.08,30.84,33.45,14.13,47.67,1010.75,2023.96,3160.41,2896.51,3281.58,599.41,584.03,48.55,0000 0000 0000 0000 000000
2016-07-23 04:53:40,0.00,0.64,0.00,27.10,30.85,33.48,14.17,47.82,1010.72,2023.89,3160.01,2896.03,3281.05,599.98,584.43,48.60,0000 0000 0000 0000 000000
2016-07-23 04:58:41,0.01,0.64,0.00,27.12,30.86,33.49,14.18,47.83,1010.69,2023.83,3159.94,2896.00,3281.00,599.92,584.35,48.65,0000 0000 0000 0000 000000
2016-07-23 05:03:42,-0.00,0.64,0.00,27.13,30.87,33.50,14.18,47.90,1010.62,2023.71,3159.27,2895.98,3280.81,600.00,584.37,48.70,0000 0000 0000 0000 000000
2016-07-23 05:08:44,-0.01,0.64,0.00,27.13,30.89,33.49,14.14,47.87,1010.51,2023.35,3159.01,2895.72,3280.16,599.94,584.28,48.75,0000 0000 0000 0000 000000
2016-07-23 05:13:45,-0.00,0.64,0.00,27.13,30.90,33.49,14.21,47.85,1010.39,2023.16,3158.94,2895.14,3280.01,599.70,583.95,48.80,0000 0000 0000 0000 000000
2016-07-23 05:18:46,0.01,0.64,0.00,27.16,30.90,33.51,14.23,47.83,1010.33,2023.06,3158.49,2895.00,3280.00,600.15,584.20,48.85,0000 0000 0000 0000 000000
2016-07-23 05:23:47,0.00,0.64,0.00,27.17,30.92,33.52,14.23,47.91,1010.29,2023.03,3158.03,2895.00,3279.85,600.35,584.44,48.90,0000 0000 0000 0000 000000
2016-07-23 05:28:48,0.01,0.64,0.00,27.19,30.93,33.52,14.23,47.83,1010.28,2023.01,3158.00,2894.96,3279.19,599.97,583.93,48.95,0000 0000 0000 0000 000000
2016-07-23 05:33:50,0.02,0.64,0.00,27.20,30.95,33.52,14.23,47.78,1010.27,2023.00,3157.70,2894.53,3279.01,600.37,584.44,49.00,0000 0000 0000 0000 000000
2016-07-23 05:38:51,0.01,0.64,0.00,27.20,30.95,33.52,14.21,48.02,1010.27,2023.00,3157.06,2894.07,3278.99,599.86,583.90,49.05,0000 0000 0000 0000 000000
2016-07-23 05:43:53,0.00,0.64,0.00,27.21,30.97,33.55,14.19,47.97,1010.26,2023.00,3157.00,2894.00,3278.92,599.63,583.66,49.11,0000 0000 0000 0000 000000
2016-07-23 05:48:54,0.01,0.65,0.00,27.24,30.97,33.58,14.17,47.87,1010.27,2023.00,3156.91,2894.00,3278.42,600.23,584.30,49.16,0000 0000 0000 0000 000000
2016-07-23 05:53:55,0.01,0.65,0.00,27.25,30.99,33.55,14.19,47.86,1010.27,2023.00,3156.14,2893.94,3278.01,600.04,583.94,49.21,0000 0000 0000 0000 000000
2016-07-23 05:58:57,0.01,0.65,0.00,27.25,31.00,33.56,14.22,48.05,1010.27,2022.98,3156.01,2893.49,3277.97,599.89,583.82,49.26,0000 0000 0000 0000 000000
2016-07-23 06:03:58,0.00,0.65,0.00,27.27,31.01,33.58,14.17,48.24,1010.27,2022.97,3155.99,2893.14,3277.87,599.92,583.89,49.31,0000 0000 0000 0000 000000
2016-07-23 06:08:59,0.01,0.65,0.00,27.27,31.02,33.59,14.22,48.09,1010.27,2022.96,3155.92,2893.01,3277.36,600.13,584.01,49.36,0000 0000 0000 0000 000000
2016-07-23 06:14:00,0.01,0.65,0.00,27.28,31.02,33.61,14.16,48.12,1010.27,2022.94,3155.18,2893.00,3277.04,599.72,583.66,49.41,0000 0000 0000 0000 000000
2016-07-23 06:19:02,0.00,0.65,0.00,27.31,31.05,33.61,14.16,47.93,1010.27,2022.94,3155.00,2893.00,3277.00,600.32,584.13,49.46,0000 0000 0000 0000 000000
2016-07-23 06:24:03,-0.00,0.65,0.00,27.32,31.05,33.60,14.18,48.00,1010.27,2022.81,3154.96,2892.88,3276.94,600.18,583.97,49.51,0000 0000 0000 0000 000000
2016-07-23 06:29:04,0.00,0.65,0.00,27.33,31.06,33.60,14.25,47.95,1010.27,2022.62,3154.60,2892.55,3276.61,600.11,583.82,49.56,0000 0000 0000 0000 000000
2016-07-23 06:34:05,0.03,0.65,0.00,27.34,31.07,33.63,14.16,47.78,1010.27,2022.61,3154.04,2892.05,3276.07,600.31,584.16,49.61,0000 0000 0000 0000 000000
2016-07-23 06:39:06,-0.01,0.65,0.00,27.34,31.08,33.64,14.15,48.04,1010.27,2022.54,3153.97,2892.00,3276.00,599.73,583.57,49.66,0000 0000 0000 0000 000000
2016-07-23 06:44:08,-0.01,0.65,0.00,27.35,31.10,33.67,14.13,47.86,1010.27,2022.45,3153.52,2891.99,3275.98,599.85,583.62,49.71,0000 0000 0000 0000 000000
2016-07-23 06:49:09,0.02,0.65,0.00,27.36,31.10,33.69,14.17,47.98,1010.29,2022.25,3153.02,2891.66,3275.37,600.15,583.89,49.76,0000 0000 0000 0000 000000
2016-07-23 06:54:10,0.04,0.65,0.00,27.36,31.11,33.69,14.16,47.94,1010.29,2022.45,3152.55,2891.11,3275.01,599.77,583.39,49.81,0000 0000 0000 0000 000000
2016-07-23 06:59:12,0.01,0.65,0.00,27.37,31.12,33.70,14.20,48.11,1010.29,2022.54,3152.03,2891.01,3275.00,600.05,583.77,49.86,0000 0000 0000 0000 000000
2016-07-23 07:04:13,0.01,0.65,0.00,27.36,31.12,33.73,14.24,48.04,1010.32,2022.58,3152.00,2891.00,3274.94,600.13,583.89,49.91,0000 0000 0000 0000 000000
2016-07-23 07:09:14,0.02,0.65,0.00,27.38,31.13,33.75,14.22,47.91,1010.29,2022.50,3151.71,2890.98,3274.51,600.32,584.14,49.96,0000 0000 0000 0000 000000
2016-07-23 07:14:15,0.00,0.66,0.00,27.39,31.15,33.73,14.23,47.90,1010.29,2022.34,3151.05,2890.51,3274.03,600.21,583.98,50.01,0000 0000 0000 0000 000000
2016-07-23 07:19:17,0.02,0.66,0.00,27.42,31.15,33.73,14.16,48.17,1010.30,2022.36,3150.93,2890.06,3273.99,600.11,583.74,50.06,0000 0000 0000 0000 000000
2016-07-23 07:24:18,0.01,0.66,0.00,27.43,31.15,33.73,14.18,47.87,1010.29,2022.22,3150.32,2890.00,3273.80,600.13,583.56,50.12,0000 0000 0000 0000 000000
2016-07-23 07:29:19,0.00,0.66,0.00,27.44,31.17,33.71,14.14,47.76,1010.33,2022.13,3150.01,2889.99,3273.25,599.61,583.26,50.17,0000 0000 0000 0000 000000
2016-07-23 07:34:20,-0.00,0.66,0.00,27.45,31.17,33.74,14.19,48.06,1010.31,2022.09,3150.00,2889.97,3273.06,600.02,583.57,50.22,0000 0000 0000 0000 000000
2016-07-23 07:39:21,0.02,0.66,0.00,27.47,31.18,33.75,14.24,48.16,1010.32,2022.15,3149.83,2889.83,3273.00,600.12,583.63,50.27,0000 0000 0000 0000 000000
2016-07-23 07:44:23,0.03,0.66,0.00,27.48,31.20,33.73,14.19,47.87,1010.36,2022.27,3149.25,2889.45,3272.99,600.27,583.79,50.32,0000 0000 0000 0000 000000
2016-07-23 07:49:24,-0.00,0.66,0.00,27.51,31.20,33.75,14.14,47.89,1010.28,2022.21,3149.04,2889.09,3272.97,599.80,583.23,50.37,0000 0000 0000 0000 000000
2016-07-23 07:54:25,0.00,0.66,0.00,27.54,31.22,33.73,14.11,47.77,1010.28,2022.10,3149.00,2889.01,3272.60,599.73,582.94,50.42,0000 0000 0000 0000 000000
2016-07-23 07:59:26,0.00,0.66,0.00,27.57,31.22,33.74,14.27,48.21,1010.27,2022.03,3148.99,2889.00,3272.10,600.30,583.54,50.47,0000 0000 0000 0000 000000
2016-07-23 08:04:27,0.00,0.66,0.00,27.62,31.25,33.74,14.13,47.96,1010.27,2022.01,3148.92,2888.98,3272.00,599.90,583.09,50.52,0000 0000 0000 0000 000000
2016-07-23 08:09:29,0.01,0.66,0.00,27.66,31.26,33.73,14.16,48.08,1010.27,2022.00,3148.56,2888.70,3272.00,600.07,583.19,50.57,0000 0000 0000 0000 000000
2016-07-23 08:14:30,0.02,0.66,0.00,27.69,31.28,33.74,14.10,48.01,1010.27,2022.00,3148.18,2888.22,3271.96,599.94,583.05,50.62,0000 0000 0000 0000 000000
2016-07-23 08:19:31,0.01,0.66,0.00,27.71,31.31,33.77,14.12,48.02,1010.27,2022.00,3148.03,2888.02,3271.67,599.81,582.89,50.67,0000 0000 0000 0000 000000
2016-07-23 08:24:32,0.00,0.66,0.00,27.71,31.33,33.76,14.18,47.93,1010.27,2021.98,3148.00,2888.00,3271.09,600.18,583.21,50.72,0000 0000 0000 0000 000000
2016-07-23 08:29:33,0.00,0.66,0.00,27.74,31.35,33.80,14.15,47.93,1010.27,2021.95,3147.99,2888.00,3271.00,600.25,583.18,50.77,0000 0000 0000 0000 000000
2016-07-23 08:34:34,-0.01,0.66,0.00,27.75,31.37,33.83,14.18,47.86,1010.27,2021.83,3147.94,2887.91,3270.99,600.24,583.06,50.82,0000 0000 0000 0000 000000
2016-07-23 08:39:36,-0.03,0.66,0.00,27.76,31.39,33.85,14.08,48.03,1010.27,2021.27,3147.75,2887.42,3270.87,599.99,582.95,50.87,0000 0000 0000 0000 000000
2016-07-23 08:44:37,0.01,0.66,0.00,27.79,31.41,33.87,14.11,47.90,1010.27,2021.02,3147.34,2887.07,3270.27,599.90,582.86,50.92,0000 0000 0000 0000 000000
2016-07-23 08:49:38,0.00,0.66,0.00,27.80,31.43,33.88,14.20,48.13,1010.26,2021.00,3147.01,2887.00,3270.01,600.12,583.00,50.97,0000 0000 0000 0000 000000
2016-07-23 08:54:40,0.00,0.66,0.00,27.84,31.45,33.92,14.11,48.03,1010.21,2021.00,3147.03,2887.00,3270.00,599.96,582.74,51.02,0000 0000 0000 0000 000000
2016-07-23 08:59:41,0.00,0.66,0.00,27.85,31.47,33.94,14.12,47.85,1010.19,2020.98,3147.03,2887.00,3269.98,599.93,582.64,51.08,0000 0000 0000 0000 000000
2016-07-23 09:04:42,-0.00,0.66,0.00,27.89,31.50,33.95,14.19,47.91,1010.20,2020.89,3147.00,2886.92,3269.88,600.18,582.83,51.13,0000 0000 0000 0000 000000
2016-07-23 09:09:44,-0.01,0.66,0.00,27.89,31.51,33.95,14.16,48.04,1010.24,2020.67,3146.98,2886.72,3269.52,599.69,582.24,51.18,0000 0000 0000 0000 000000
2016-07-23 09:14:45,-0.01,0.66,0.00,27.90,31.53,33.99,14.18,48.00,1010.24,2020.10,3146.43,2886.07,3269.02,599.87,582.56,51.23,0000 0000 0000 0000 000000
2016-07-23 09:19:47,-0.00,0.66,0.00,27.93,31.55,34.01,14.21,47.98,1010.23,2020.04,3146.13,2886.00,3268.99,600.30,582.81,51.28,0000 0000 0000 0000 000000
2016-07-23 09:24:48,0.00,0.66,0.00,27.96,31.57,34.02,14.10,47.82,1010.17,2020.00,3146.01,2885.99,3268.68,599.98,582.50,51.33,0000 0000 0000 0000 000000
2016-07-23 09:29:50,0.00,0.66,0.00,27.99,31.59,34.03,14.10,47.79,1010.21,2019.99,3146.01,2885.97,3268.13,600.22,582.57,51.38,0000 0000 0000 0000 000000
2016-07-23 09:34:51,0.01,0.66,0.00,28.02,31.61,34.04,14.19,47.89,1010.26,2019.93,3145.99,2885.61,3268.00,600.15,582.56,51.43,0000 0000 0000 0000 000000
2016-07-23 09:39:52,0.01,0.66,0.00,28.02,31.62,34.05,14.22,48.05,1010.27,2019.79,3145.65,2885.11,3267.93,600.12,582.55,51.48,0000 0000 0000 0000 000000
2016-07-23 09:44:53,-0.02,0.66,0.00,28.04,31.65,34.07,14.10,48.08,1010.27,2019.31,3145.04,2885.00,3267.26,599.90,582.31,51.53,0000 0000 0000 0000 000000
2016-07-23 09:49:54,-0.00,0.66,0.00,28.06,31.66,34.06,14.15,47.81,1010.27,2019.16,3144.98,2884.91,3267.01,600.29,582.45,51.58,0000 0000 0000 0000 000000
2016-07-23 09:54:56,0.00,0.66,0.00,28.07,31.68,34.09,14.16,47.89,1010.27,2019.04,3144.82,2884.57,3266.98,600.10,582.44,51.63,0000 0000 0000 0000 000000
2016-07-23 09:59:57,0.02,0.66,0.00,28.10,31.70,34.12,14.16,47.84,1010.28,2019.00,3144.38,2884.24,3266.85,600.26,582.61,51.68,0000 0000 0000 0000 000000
2016-07-23 10:04:58,0.01,0.66,0.00,28.09,31.71,34.16,14.14,47.88,1010.28,2019.00,3144.03,2884.03,3266.32,599.84,582.17,51.73,0000 0000 0000 0000 000000
2016-07-23 10:10:00,-0.00,0.66,0.00,28.09,31.73,34.18,14.18,47.79,1010.27,2019.00,3143.99,2884.01,3266.11,599.94,582.43,51.78,0000 0000 0000 0000 000000
2016-07-23 10:15:01,0.00,0.66,0.00,28.11,31.75,34.17,14.13,47.85,1010.28,2019.00,3143.94,2883.99,3266.00,599.98,582.25,51.83,0000 0000 0000 0000 000000
2016-07-23 10:20:02,0.00,0.66,0.00,28.14,31.76,34.18,14.09,47.88,1010.28,2019.00,3143.76,2883.92,3265.91,599.97,582.19,51.88,0000 0000 0000 0000 000000
2016-07-23 10:25:03,0.05,0.66,0.00,28.14,31.78,34.19,14.13,47.73,1010.28,2018.98,3143.05,2883.20,3265.12,600.11,582.35,51.94,0000 0000 0000 0000 000000
2016-07-23 10:30:05,0.01,0.67,0.00,28.16,31.80,34.22,14.13,47.88,1010.29,2018.94,3142.72,2883.01,3264.98,600.12,582.31,51.99,0000 0000 0000 0000 000000
2016-07-23 10:35:06,0.00,0.67,0.00,28.17,31.81,34.27,14.12,47.70,1010.28,2018.86,3142.20,2882.98,3264.81,599.86,582.03,52.04,0000 0000 0000 0000 000000
2016-07-23 10:40:07,0.00,0.67,0.00,28.18,31.82,34.27,14.18,47.88,1010.27,2018.65,3142.00,2882.88,3264.21,600.13,582.23,52.09,0000 0000 0000 0000 000000
2016-07-23 10:45:09,-0.01,0.67,0.00,28.21,31.85,34.27,14.10,47.77,1010.27,2018.37,3141.97,2882.28,3264.03,599.61,581.72,52.14,0000 0000 0000 0000 000000
2016-07-23 10:50:10,0.01,0.66,0.00,28.24,31.86,34.22,14.07,47.83,1010.28,2018.23,3141.61,2882.04,3264.00,599.62,581.76,52.19,0000 0000 0000 0000 000000
2016-07-23 10:55:11,-0.00,0.66,0.00,28.28,31.87,34.23,14.14,47.85,1010.28,2018.10,3141.08,2882.00,3263.98,599.95,581.94,52.24,0000 0000 0000 0000 000000
2016-07-23 11:00:12,0.00,0.67,0.00,28.34,31.90,34.25,14.16,47.96,1010.28,2018.04,3141.00,2881.97,3263.59,600.32,582.19,52.29,0000 0000 0000 0000 000000
2016-07-23 11:05:13,0.01,0.67,0.00,28.40,31.91,34.28,14.11,47.73,1010.29,2018.01,3140.98,2881.89,3263.05,599.75,581.50,52.34,0000 0000 0000 0000 000000
2016-07-23 11:10:14,0.01,0.67,0.00,28.46,31.94,34.31,14.06,47.53,1010.38,2018.01,3140.90,2881.47,3263.01,599.06,580.88,52.39,0000 0000 0000 0000 000000
2016-07-23 11:15:16,0.02,0.67,0.00,28.47,31.96,34.33,14.06,47.59,1010.48,2018.00,3140.22,2881.05,3262.99,599.88,581.61,52.44,0000 0000 0000 0000 000000
2016-07-23 11:20:17,0.00,0.67,0.00,28.47,31.98,34.36,14.08,47.72,1010.54,2018.00,3140.00,2881.00,3262.79,599.71,581.44,52.49,0000 0000 0000 0000 000000
2016-07-23 11:25:18,0.03,0.67,0.00,28.45,32.00,34.40,14.06,47.58,1010.47,2018.00,3139.62,2880.86,3262.15,599.87,581.58,52.54,0000 0000 0000 0000 000000
2016-07-23 11:30:20,0.02,0.67,0.00,28.41,32.02,34.46,14.14,47.72,1010.55,2017.99,3139.02,2880.16,3261.97,599.93,581.77,52.59,0000 0000 0000 0000 000000
2016-07-23 11:35:21,0.00,0.67,0.00,28.41,32.04,34.49,14.09,47.61,1010.61,2017.94,3138.97,2880.00,3261.55,600.02,581.91,52.64,0000 0000 0000 0000 000000
2016-07-23 11:40:22,0.00,0.67,0.00,28.39,32.05,34.55,14.13,47.75,1010.60,2017.87,3138.71,2880.00,3261.09,600.05,581.91,52.69,0000 0000 0000 0000 000000
2016-07-23 11:45:23,-0.00,0.67,0.00,28.37,32.07,34.57,14.19,47.81,1010.63,2017.74,3138.13,2879.84,3261.01,600.12,582.11,52.74,0000 0000 0000 0000 000000
2016-07-23 11:50:25,-0.02,0.67,0.00,28.38,32.08,34.62,14.06,47.64,1010.56,2017.33,3138.00,2879.35,3260.99,599.58,581.68,52.79,0000 0000 0000 0000 000000
2016-07-23 11:55:26,0.00,0.67,0.00,28.37,32.10,34.65,14.09,47.51,1010.37,2017.17,3137.98,2879.06,3260.92,599.88,581.71,52.84,0000 0000 0000 0000 000000
2016-07-23 12:00:27,-0.00,0.67,0.00,28.35,32.10,34.67,14.18,47.57,1010.32,2017.11,3137.94,2879.03,3260.68,600.21,582.03,52.89,0000 0000 0000 0000 000000
2016-07-23 12:05:28,0.01,0.67,0.00,28.35,32.12,34.70,14.16,47.60,1010.42,2017.08,3137.60,2879.00,3260.18,599.89,581.73,52.95,0000 0000 0000 0000 000000
2016-07-23 12:10:30,0.00,0.67,0.00,28.35,32.12,34.74,14.15,47.63,1010.42,2017.03,3137.11,2879.00,3260.01,600.01,581.72,53.00,0000 0000 0000 0000 000000
2016-07-23 12:15:31,0.00,0.67,0.00,28.35,32.13,34.77,14.11,47.58,1010.31,2017.01,3137.02,2879.00,3260.00,599.85,581.67,53.05,0000 0000 0000 0000 000000
2016-07-23 12:20:32,0.00,0.67,0.00,28.36,32.15,34.77,14.11,47.58,1010.31,2017.00,3137.00,2878.98,3259.99,599.98,581.78,53.10,0000 0000 0000 0000 000000
2016-07-23 12:25:33,0.00,0.67,0.00,28.34,32.15,34.79,14.15,47.60,1010.31,2017.00,3137.00,2878.93,3259.97,599.85,581.83,53.15,0000 0000 0000 0000 000000
2016-07-23 12:30:35,0.01,0.67,0.00,28.34,32.15,34.80,14.18,47.59,1010.30,2017.00,3136.93,2878.81,3259.85,600.03,582.01,53.20,0000 0000 0000 0000 000000
2016-07-23 12:35:36,0.04,0.67,0.00,28.34,32.16,34.81,14.17,47.73,1010.29,2017.00,3136.13,2878.22,3259.23,599.98,581.81,53.25,0000 0000 0000 0000 000000
2016-07-23 12:40:37,0.01,0.67,0.00,28.35,32.17,34.84,14.14,47.51,1010.29,2017.00,3136.00,2878.05,3259.04,599.84,581.58,53.30,0000 0000 0000 0000 000000
2016-07-23 12:45:39,0.00,0.67,0.00,28.35,32.17,34.85,14.15,47.58,1010.28,2017.00,3136.01,2878.00,3259.00,600.21,581.94,53.35,0000 0000 0000 0000 000000
2016-07-23 12:50:40,0.00,0.67,0.00,28.35,32.17,34.86,14.08,47.77,1010.27,2017.00,3135.84,2878.00,3258.98,599.90,581.63,53.40,0000 0000 0000 0000 000000
2016-07-23 12:55:41,0.09,0.68,0.00,28.33,32.17,34.85,14.15,47.66,1010.27,2017.00,3134.68,2877.04,3257.79,600.09,581.99,53.45,0000 0000 0000 0000 000000